Regional Weather Roundup
Issued by NWS

Home | Current Version | Previous Version | Graphics & Text | Print | Product List | Glossary On
Versions: 1 2 3 4 5 6 7 8 9 10 11 12 13 14 15 16 17 18 19 20 21 22 23 24 25 26 27
000
ASUS45 KSLC 220010
RWRUT

UTAH REGIONAL WEATHER ROUNDUP
NATIONAL WEATHER SERVICE SALT LAKE CITY UT
500 PM MST SAT JAN 21 2017

UTZ001>011-023>025-220100-

NORTHERN UTAH

CITY           SKY/WX    TMP DP  RH WIND       PRES   REMARKS
BRIGHAM CITY     N/A     33  31  94 CALM      29.75R
HILL AFB       MIX PCPN  32  27  80 S5        29.74R WCI  27
LOGAN          CLOUDY    34  29  82 CALM      29.73R
OGDEN          CLOUDY    32  27  81 SW8       29.74R WCI  25
SALT LAKE CITY MOCLDY    35  30  82 CALM      29.75R
TOOELE VALLEY  MOCLDY    34  28  80 SE3       29.77R
WENDOVER       CLOUDY    37  21  52 W8        29.75R WCI  31
HEBER CITY     CLOUDY    30  19  64 SW7       29.69R WCI  23
WEST JORDAN    CLOUDY    32  32  99 CALM      29.76R

$$

UTZ011>015-024>027-220100-

CENTRAL/NORTHEAST UTAH

CITY           SKY/WX    TMP DP  RH WIND       PRES   REMARKS
PROVO AIRPORT  MOCLDY    34  28  80 SW6       29.78R WCI  29
MOAB/CANYONLAN PTCLDY    42  31  64 W16       29.62R
DELTA          MOCLDY    32  30  93 MISG      29.78R
PRICE          PTCLDY    32  20  61 NW8G17    29.64R WCI  25
RICHFIELD      MOCLDY    32  28  86 W2        29.80R
ROOSEVELT      CLOUDY    28  23  80 SE3       29.65R
VERNAL         LGT SNOW  26  23  88 CALM      29.63R FOG

$$

UTZ013>016-019>022-027-220100-

SOUTHERN UTAH

CITY           SKY/WX    TMP DP  RH WIND       PRES   REMARKS
BRYCE CANYON   LGT SNOW  25  19  78 NW18G25   29.73R VSB 1   WCI  11
CEDAR CITY     PTCLDY    33  21  61 SW8       29.77R WCI  26
MILFORD        PTCLDY    39  25  57 E6        29.76R WCI  35
ST GEORGE      MOCLDY    48  30  49 W10       29.84R
HANKSVILLE     PTCLDY    43  21  42 MISG      29.68R
KANAB          CLEAR     37  27  65 W16G25    29.82R WCI  28
BLANDING       PTCLDY    33  29  88 W3        29.70R

$$

REGIONAL REPORTS     COLORADO/ARIZONA

CITY           SKY/WX    TMP DP  RH WIND       PRES   REMARKS
CRAIG, CO      LGT SNOW  28  25  88 SW10      29.58R VSB 3/4 WCI  19
GRAND JUNCTION CLOUDY    35  34  96 N12       29.60R WCI  27
RIFLE, CO      FLURRIES  34  32  92 W10       29.56R WCI  26
MONTROSE, CO   FLURRIES  33  31  92 E3        29.60R
CORTEZ, CO     LGT SNOW  33  31  92 W10       29.63R FOG     WCI  25
COLORADO CITY    N/A     39  32  75 W6        29.84R WCI  35
PAGE, AZ       CLOUDY    45  18  34 W13G21    29.75R
GRAND CANYON   MOCLDY    30  25  81 SW8       29.82R WCI  22
KINGMAN, AZ    CLEAR     47  24  40 SW17      29.88R
FLAGSTAFF, AZ  MOCLDY    29  21  72 W8        29.83R WCI  21

$$

REGIONAL REPORTS    NEVADA/IDAHO/WYOMING

CITY           SKY/WX    TMP DP  RH WIND       PRES   REMARKS
LAS VEGAS, NV  PTCLDY    55  26  32 SW12      29.84R
ELY, NY        CLOUDY    31  18  58 SW9       29.79R WCI  23
ELKO, NV       CLOUDY    35  23  61 SW9       29.75R WCI  28
POCATELLO, ID  MOCLDY    32  27  81 SW15      29.70R WCI  22
BURLEY, ID     MOCLDY    36  27  69 W7        29.70R WCI  30
FORT BRIDGER,  MOCLDY    26  25  97 W16       29.66R WCI  13
EVANSTON, WY   CLOUDY    24  19  81 W15       29.66R WCI  11
ROCK SPRINGS,  LGT SNOW  21  18  88 SW7       29.60R FOG     WCI  12

$$




USA.gov is the U.S. government's official web portal to all federal, state and local government web resources and services.